GW3693 Weather Reports


Display with metric or nautical units.
time (UTC)temp
F
wind
direction
speed
MPH
gust
MPH
rain 1hr
in
rain 24hr
in
rain mn
in
humidity
%
barometer
mb
20240523175005 80 163 5.0 11.0 0.00 0.25 0.01 66 1016.2
20240523174505 80 148 5.0 11.0 0.00 0.25 0.01 66 1016.1
20240523174004 81 178 6.0 11.0 0.00 0.25 0.01 65 1016.0
20240523173507 81 134 6.0 13.0 0.00 0.25 0.01 63 1015.8
20240523173006 81 177 4.0 13.0 0.00 0.25 0.01 65 1015.7
20240523172507 82 176 5.0 12.0 0.00 0.25 0.01 65 1015.7
20240523172006 82 227 7.0 14.0 0.00 0.25 0.01 62 1015.7
20240523171509 82 172 7.0 14.0 0.00 0.25 0.01 62 1015.6
20240523171008 83 162 7.0 13.0 0.00 0.25 0.01 59 1015.6
20240523170504 84 68 5.0 12.0 0.00 0.25 0.01 57 1015.5
20240523170012 84 155 5.0 12.0 0.00 0.25 0.01 62 1015.4
20240523165508 84 140 5.0 9.0 0.00 0.25 0.01 58 1015.2
20240523165004 84 186 2.0 6.0 0.00 0.25 0.01 61 1015.1
20240523164504 83 163 3.0 11.0 0.00 0.25 0.01 61 1015.0
20240523164004 83 167 5.0 11.0 0.00 0.25 0.01 61 1015.2
20240523163503 84 191 3.0 7.0 0.00 0.25 0.01 66 1015.5
20240523163005 83 172 4.0 7.0 0.00 0.25 0.01 62 1015.5
20240523162505 82 167 1.0 7.0 0.00 0.25 0.01 65 1015.6
20240523162004 82 148 3.0 7.0 0.00 0.25 0.01 64 1015.6
20240523161510 82 162 2.0 8.0 0.00 0.25 0.01 64 1015.5
20240523161004 82 188 5.0 8.0 0.00 0.25 0.01 64 1015.4
20240523160504 82 172 3.0 8.0 0.00 0.25 0.01 64 1015.3
20240523160022 82 155 2.0 8.0 0.00 0.25 0.01 67 1015.3
20240523155505 83 230 3.0 6.0 0.00 0.25 0.01 65 1015.2
20240523155012 82 152 1.0 10.0 0.00 0.25 0.01 67 1015.3
20240523154515 82 147 4.0 10.0 0.00 0.25 0.01 64 1015.4
20240523154004 82 175 3.0 8.0 0.00 0.25 0.01 65 1015.3
20240523153504 82 185 2.0 8.0 0.00 0.25 0.01 70 1015.3
20240523153005 81 141 3.0 8.0 0.00 0.25 0.01 72 1015.4
20240523152505 81 147 3.0 8.0 0.00 0.25 0.01 72 1015.3
20240523152004 81 154 4.0 9.0 0.00 0.25 0.01 74 1015.2
20240523151509 80 158 4.0 9.0 0.00 0.25 0.01 70 1015.1
20240523151005 80 168 3.0 7.0 0.00 0.25 0.01 76 1015.1
20240523150504 79 160 1.0 7.0 0.00 0.25 0.01 74 1015.1
20240523150009 79 157 3.0 7.0 0.00 0.25 0.01 76 1015.0
20240523145504 79 169 3.0 6.0 0.00 0.25 0.01 77 1014.9
20240523145004 79 153 3.0 7.0 0.00 0.25 0.01 78 1014.9
20240523144515 78 160 2.0 7.0 0.00 0.25 0.01 78 1014.8
20240523144005 78 185 2.0 7.0 0.00 0.25 0.01 78 1014.7
20240523143504 78 127 5.0 9.0 0.00 0.25 0.01 79 1014.6
20240523143004 78 163 3.0 9.0 0.00 0.25 0.01 78 1014.5
20240523142504 78 167 2.0 5.0 0.00 0.25 0.01 79 1014.5
20240523142005 77 157 2.0 5.0 0.00 0.25 0.01 80 1014.6
20240523141505 77 158 2.0 5.0 0.00 0.25 0.01 81 1014.6
20240523141004 77 154 2.0 4.0 0.00 0.25 0.01 82 1014.6
20240523140504 76 176 2.0 3.0 0.00 0.25 0.01 81 1014.5
20240523140019 76 167 1.0 4.0 0.00 0.25 0.01 82 1014.6
20240523135503 76 167 2.0 4.0 0.00 0.25 0.01 82 1014.7
20240523135004 76 174 1.0 5.0 0.00 0.25 0.01 83 1014.8
20240523134510 76 145 2.0 5.0 0.00 0.25 0.01 83 1014.9
20240523134004 75 179 2.0 4.0 0.00 0.25 0.01 86 1014.9
20240523133507 74 165 1.0 3.0 0.00 0.25 0.01 87 1014.8
20240523133011 74 162 1.0 3.0 0.00 0.25 0.01 86 1014.7
20240523132504 74 142 1.0 2.0 0.00 0.25 0.01 87 1014.7
20240523132003 73 167 1.0 2.0 0.00 0.25 0.01 88 1014.8
20240523131504 73 156 1.0 2.0 0.00 0.25 0.01 88 1014.7
20240523131004 73 128 1.0 1.0 0.00 0.25 0.01 89 1014.7
20240523130504 73 147 0.0 1.0 0.00 0.25 0.01 89 1014.7
20240523130004 72 136 0.0 1.0 0.00 0.25 0.01 91 1014.7
20240523125505 71 137 0.0 2.0 0.00 0.25 0.01 92 1014.9
20240523125005 71 145 0.0 2.0 0.00 0.25 0.01 92 1014.8
20240523124508 71 147 0.0 0.0 0.00 0.25 0.01 92 1014.8
20240523124006 70 147 0.0 0.0 0.00 0.25 0.01 93 1014.7
20240523123506 70 147 0.0 2.0 0.00 0.25 0.01 94 1014.5
20240523123009 69 147 0.0 2.0 0.00 0.25 0.01 94 1014.5
20240523122505 69 148 1.0 2.0 0.00 0.25 0.01 93 1014.4
20240523122006 69 159 0.0 1.0 0.00 0.25 0.01 94 1014.4
20240523121504 69 85 0.0 0.0 0.00 0.25 0.01 94 1014.4
20240523121004 69 84 0.0 0.0 0.00 0.25 0.01 93 1014.4
20240523120504 69 84 0.0 0.0 0.00 0.25 0.01 94 1014.3
20240523120008 69 84 0.0 0.0 0.00 0.25 0.01 94 1014.1
20240523115504 69 99 0.0 0.0 0.00 0.25 0.01 94 1014.2
20240523115004 68 99 0.0 0.0 0.00 0.25 0.01 94 1014.2
20240523114505 68 99 0.0 0.0 0.00 0.25 0.01 94 1014.4
20240523114004 68 99 0.0 0.0 0.00 0.25 0.01 95 1014.3
20240523113505 68 146 0.0 0.0 0.00 0.25 0.01 95 1014.4
20240523113009 68 146 0.0 0.0 0.00 0.25 0.01 94 1014.3
20240523112505 68 146 0.0 0.0 0.00 0.25 0.01 95 1014.2
20240523112005 67 146 0.0 0.0 0.00 0.25 0.01 95 1014.2
20240523111515 67 146 0.0 0.0 0.00 0.25 0.01 95 1014.2
20240523111008 67 146 0.0 0.0 0.00 0.25 0.01 95 1014.1
20240523110503 67 147 0.0 0.0 0.00 0.25 0.01 95 1014.2
20240523110008 67 147 0.0 0.0 0.00 0.25 0.01 95 1014.3
20240523105504 67 147 0.0 0.0 0.00 0.25 0.01 95 1014.2
20240523105004 67 148 0.0 0.0 0.00 0.25 0.01 95 1014.3
20240523104506 67 155 0.0 0.0 0.00 0.25 0.01 95 1014.3
20240523104004 67 162 0.0 0.0 0.00 0.25 0.01 95 1014.3
20240523103506 67 167 0.0 1.0 0.00 0.25 0.01 95 1014.3
20240523103010 67 167 0.0 2.0 0.00 0.25 0.01 95 1014.4
20240523102505 67 146 1.0 2.0 0.00 0.25 0.01 95 1014.3
20240523102005 67 146 0.0 0.0 0.00 0.25 0.01 95 1014.4
20240523101509 67 139 0.0 0.0 0.00 0.25 0.01 95 1014.3
20240523101010 67 139 0.0 0.0 0.00 0.25 0.01 95 1014.2
20240523100504 67 139 0.0 0.0 0.00 0.25 0.01 95 1014.2
20240523100013 68 139 0.0 0.0 0.00 0.25 0.01 94 1014.3
20240523095504 68 139 0.0 0.0 0.00 0.25 0.01 94 1014.5
20240523095003 68 139 0.0 0.0 0.00 0.25 0.01 94 1014.3
20240523094505 68 139 0.0 0.0 0.00 0.25 0.01 94 1014.4
20240523094005 68 139 0.0 0.0 0.00 0.25 0.01 94 1014.6
20240523093507 68 139 0.0 0.0 0.00 0.25 0.01 94 1014.5
20240523093007 68 139 0.0 2.0 0.00 0.25 0.01 95 1014.4
20240523092505 68 139 0.0 2.0 0.00 0.25 0.01 95 1014.3
20240523092005 68 161 0.0 1.0 0.00 0.25 0.01 94 1014.3
20240523091510 68 150 0.0 1.0 0.00 0.25 0.01 94 1014.3
20240523091004 68 136 0.0 1.0 0.00 0.25 0.01 94 1014.4
20240523090505 68 134 0.0 0.0 0.00 0.25 0.01 94 1014.4
20240523090014 68 146 0.0 0.0 0.00 0.25 0.01 95 1014.5
20240523085504 68 146 0.0 0.0 0.00 0.25 0.01 95 1014.6
20240523085006 68 146 0.0 0.0 0.00 0.25 0.01 95 1014.7
20240523084504 68 146 0.0 0.0 0.00 0.25 0.01 95 1014.6
20240523084006 68 146 0.0 0.0 0.00 0.25 0.01 95 1014.7
20240523083504 68 146 0.0 0.0 0.00 0.25 0.01 95 1014.6
20240523083003 68 146 0.0 0.0 0.00 0.25 0.01 95 1014.6
20240523082505 68 146 0.0 0.0 0.00 0.25 0.01 95 1014.4
20240523082005 68 146 0.0 1.0 0.00 0.25 0.01 95 1014.7
20240523081505 68 146 0.0 1.0 0.00 0.25 0.01 96 1014.6
20240523081005 68 146 0.0 0.0 0.00 0.25 0.01 96 1014.6
20240523080505 67 146 0.0 0.0 0.00 0.25 0.01 95 1014.6
20240523080007 67 146 0.0 0.0 0.00 0.25 0.01 95 1014.6
20240523075505 67 146 0.0 0.0 0.00 0.25 0.01 95 1014.5
20240523075008 67 146 0.0 1.0 0.00 0.25 0.01 95 1014.5
20240523074512 67 146 0.0 1.0 0.00 0.25 0.01 95 1014.6
20240523074004 67 142 0.0 1.0 0.00 0.25 0.01 95 1014.6
20240523073504 67 124 0.0 1.0 0.00 0.25 0.01 95 1014.9
20240523073004 67 124 0.0 0.0 0.00 0.25 0.01 95 1014.9
20240523072505 67 23 0.0 0.0 0.00 0.25 0.01 95 1015.0
20240523072006 67 22 0.0 0.0 0.00 0.25 0.01 95 1015.0
20240523071505 67 22 0.0 1.0 0.00 0.25 0.01 95 1014.9
20240523071006 67 65 0.0 1.0 0.00 0.25 0.01 95 1014.8
20240523070505 66 65 0.0 0.0 0.00 0.25 0.01 95 1014.7
20240523070005 66 162 0.0 0.0 0.00 0.25 0.01 95 1014.5
20240523065506 66 162 0.0 0.0 0.00 0.25 0.01 95 1014.5
20240523065006 66 162 0.0 0.0 0.00 0.25 0.01 95 1014.6
20240523064511 66 162 0.0 0.0 0.01 0.25 0.01 95 1014.6
20240523064011 66 162 0.0 2.0 0.01 0.25 0.01 95 1014.7
20240523063505 66 162 0.0 2.0 0.01 0.25 0.01 95 1014.5
20240523063005 67 161 1.0 2.0 0.01 0.25 0.01 95 1014.6
20240523062505 67 128 0.0 3.0 0.01 0.25 0.01 95 1014.3
20240523062005 67 156 1.0 3.0 0.01 0.25 0.01 95 1014.3
20240523061505 67 134 1.0 3.0 0.01 0.25 0.01 95 1014.2
20240523061005 66 169 1.0 3.0 0.01 0.25 0.01 95 1014.1
20240523060504 66 143 1.0 2.0 0.01 0.25 0.01 95 1014.2
20240523060007 66 146 0.0 2.0 0.01 0.25 0.01 95 1014.4
20240523055505 66 136 0.0 0.0 0.01 0.25 0.01 95 1014.6
20240523055005 66 154 0.0 0.0 0.01 0.25 0.01 95 1014.7
20240523054509 66 154 0.0 0.0 0.00 0.24 0.00 95 1014.9
20240523054008 66 154 0.0 0.0 0.00 0.24 0.00 95 1015.1
20240523053503 66 154 0.0 0.0 0.00 0.24 0.00 95 1015.3
20240523053011 66 154 0.0 0.0 0.00 0.24 0.00 95 1015.5
20240523052506 66 113 0.0 0.0 0.00 0.24 0.00 95 1015.6
20240523052004 66 113 0.0 0.0 0.00 0.24 0.00 95 1015.7
20240523051504 66 113 0.0 1.0 0.00 0.24 0.00 95 1015.7
20240523051003 66 113 0.0 3.0 0.00 0.24 0.00 95 1015.7
20240523050506 66 139 0.0 3.0 0.00 0.24 0.00 95 1015.7
20240523050013 66 157 2.0 3.0 0.00 0.24 0.00 95 1015.9
20240523045503 66 143 0.0 1.0 0.00 0.24 0.24 95 1016.0
20240523045003 66 136 0.0 1.0 0.00 0.24 0.24 95 1015.9
20240523044531 66 142 0.0 2.0 0.00 0.24 0.24 95 1015.9
20240523044004 66 145 1.0 2.0 0.00 0.24 0.24 95 1015.7
20240523043504 66 108 0.0 3.0 0.00 0.24 0.24 95 1015.7
20240523043011 66 108 1.0 4.0 0.00 0.24 0.24 95 1015.8
20240523042504 66 195 2.0 4.0 0.00 0.24 0.24 95 1015.5
20240523042005 66 136 0.0 2.0 0.00 0.24 0.24 95 1015.7
20240523041513 66 148 0.0 2.0 0.00 0.24 0.24 95 1015.8
20240523041004 66 141 0.0 2.0 0.00 0.24 0.24 95 1015.8
20240523040504 66 141 0.0 3.0 0.00 0.24 0.24 95 1015.7
20240523040006 66 154 2.0 3.0 0.00 0.24 0.24 95 1015.7
20240523035503 66 146 1.0 2.0 0.00 0.24 0.24 95 1015.7
20240523035005 66 177 1.0 2.0 0.00 0.24 0.24 95 1015.7
20240523034504 66 144 0.0 1.0 0.00 0.24 0.24 95 1015.5
20240523034007 66 139 0.0 1.0 0.00 0.24 0.24 95 1015.5
20240523033504 66 139 0.0 1.0 0.00 0.24 0.24 95 1015.4
20240523033009 66 139 0.0 0.0 0.00 0.24 0.24 95 1015.4
20240523032505 66 139 0.0 0.0 0.00 0.24 0.24 95 1015.4
20240523032005 66 139 0.0 1.0 0.00 0.24 0.24 95 1015.3
20240523031514 66 139 0.0 1.0 0.00 0.24 0.24 95 1015.2
20240523031009 66 148 0.0 1.0 0.00 0.24 0.24 95 1015.2
20240523030503 66 90 0.0 1.0 0.00 0.24 0.24 95 1015.1
20240523030005 66 46 0.0 1.0 0.00 0.24 0.24 95 1015.1
20240523025506 66 41 0.0 1.0 0.00 0.24 0.24 95 1015.2
20240523025005 66 46 0.0 1.0 0.00 0.24 0.24 95 1015.2
20240523024506 66 149 0.0 0.0 0.00 0.24 0.24 95 1015.3
20240523024004 66 150 0.0 0.0 0.00 0.24 0.24 95 1015.4
20240523023505 66 150 0.0 0.0 0.00 0.24 0.24 95 1015.1
20240523023008 67 149 0.0 0.0 0.00 0.24 0.24 95 1014.7
20240523022504 67 149 0.0 1.0 0.00 0.24 0.24 95 1014.5
20240523022006 66 149 0.0 3.0 0.00 0.24 0.24 95 1014.4
20240523021510 66 148 0.0 3.0 0.00 0.24 0.24 95 1014.4
20240523021007 66 146 1.0 2.0 0.00 0.24 0.24 94 1014.8
20240523020508 67 141 0.0 1.0 0.00 0.24 0.24 94 1015.0
20240523020012 67 123 0.0 1.0 0.00 0.24 0.24 93 1015.2
20240523015505 67 122 0.0 0.0 0.00 0.24 0.24 93 1015.2
20240523015003 67 150 0.0 2.0 0.00 0.24 0.24 94 1015.4
20240523014505 67 166 0.0 2.0 0.00 0.24 0.24 93 1015.5
20240523014005 67 55 0.0 1.0 0.00 0.24 0.24 93 1015.5
20240523013505 68 55 0.0 1.0 0.00 0.24 0.24 93 1015.2
20240523013005 68 55 0.0 1.0 0.00 0.24 0.24 93 1015.3
20240523012504 68 60 0.0 3.0 0.00 0.24 0.24 92 1015.0
20240523012005 68 60 1.0 3.0 0.00 0.24 0.24 93 1015.1
20240523011509 68 49 1.0 3.0 0.00 0.24 0.24 94 1015.2
20240523011005 68 68 2.0 4.0 0.00 0.24 0.24 94 1015.3
20240523010504 68 57 2.0 4.0 0.00 0.24 0.24 94 1015.4
20240523010015 68 63 3.0 4.0 0.00 0.24 0.24 93 1015.3
20240523005505 68 58 2.0 3.0 0.00 0.24 0.24 94 1015.1
20240523005004 68 62 2.0 3.0 0.00 0.24 0.24 94 1014.9
20240523004506 68 57 1.0 4.0 0.00 0.24 0.24 94 1014.7
20240523004006 68 59 2.0 6.0 0.00 0.24 0.24 94 1014.7
20240523003504 68 53 4.0 6.0 0.00 0.24 0.24 94 1014.9
20240523003006 68 58 3.0 5.0 0.00 0.24 0.24 94 1014.9
20240523002505 68 56 0.0 2.0 0.00 0.24 0.24 95 1014.5
20240523002005 68 151 0.0 3.0 0.00 0.24 0.24 94 1014.2
20240523001511 68 151 1.0 4.0 0.00 0.24 0.24 94 1014.2
20240523001004 68 181 2.0 4.0 0.00 0.24 0.24 94 1014.2
20240523000505 68 150 2.0 5.0 0.00 0.24 0.24 94 1014.0
20240523000011 68 158 2.0 5.0 0.01 0.24 0.24 94 1013.9
20240522235505 68 155 2.0 3.0 0.02 0.24 0.24 94 1013.8
20240522235004 68 155 1.0 3.0 0.02 0.24 0.24 94 1014.1
20240522234512 68 167 1.0 3.0 0.02 0.24 0.24 94 1014.2
20240522234005 68 154 0.0 0.0 0.02 0.24 0.24 94 1014.2
20240522233504 68 145 0.0 0.0 0.03 0.24 0.24 93 1014.3
20240522233004 68 146 0.0 3.0 0.03 0.24 0.24 93 1014.5
20240522232504 68 147 0.0 3.0 0.11 0.24 0.24 93 1014.2
20240522232004 68 150 1.0 2.0 0.23 0.24 0.24 92 1014.4
20240522231507 68 136 0.0 1.0 0.23 0.24 0.24 93 1014.3
20240522231005 68 136 0.0 2.0 0.24 0.24 0.24 92 1014.7
20240522230505 68 139 0.0 6.0 0.24 0.24 0.24 92 1014.8
20240522230007 68 63 4.0 6.0 0.23 0.23 0.23 91 1015.8
20240522225504 68 27 1.0 5.0 0.22 0.22 0.22 91 1016.6
20240522225005 68 20 1.0 3.0 0.22 0.22 0.22 92 1016.8
20240522224509 68 49 1.0 7.0 0.22 0.22 0.22 92 1017.0
20240522224005 68 47 2.0 9.0 0.22 0.22 0.22 91 1016.6
20240522223505 68 51 5.0 16.0 0.21 0.21 0.21 90 1016.8
20240522223004 69 55 5.0 23.0 0.21 0.21 0.21 89 1017.1
20240522222504 71 188 9.0 27.0 0.13 0.13 0.13 86 1017.3
20240522222005 74 16 16.0 27.0 0.01 0.01 0.01 79 1016.8
20240522221505 76 77 2.0 5.0 0.01 0.01 0.01 80 1016.4
20240522221004 77 58 2.0 5.0 0.00 0.00 0.00 79 1016.4
20240522220505 77 63 1.0 2.0 0.00 0.00 0.00 78 1016.4
20240522220015 77 146 0.0 2.0 0.00 0.00 0.00 76 1016.3
20240522215505 77 4 0.0 4.0 0.00 0.00 0.00 76 1016.1
20240522215005 77 166 1.0 4.0 0.00 0.00 0.00 74 1015.7
20240522214510 77 151 2.0 5.0 0.00 0.00 0.00 75 1015.9
20240522214004 78 198 1.0 5.0 0.00 0.00 0.00 74 1015.4
20240522213504 78 315 1.0 5.0 0.00 0.00 0.00 72 1015.0
20240522213020 78 165 1.0 3.0 0.00 0.00 0.00 72 1015.1
20240522212504 78 159 1.0 2.0 0.00 0.00 0.00 71 1014.8
20240522212007 79 189 1.0 4.0 0.00 0.00 0.00 72 1015.1
20240522211504 79 164 0.0 4.0 0.00 0.00 0.00 71 1014.6
20240522211003 79 167 0.0 3.0 0.00 0.00 0.00 70 1014.9
20240522210505 80 176 1.0 3.0 0.00 0.00 0.00 70 1015.2
20240522210006 80 141 1.0 5.0 0.00 0.00 0.00 69 1014.9
20240522205504 80 146 2.0 5.0 0.00 0.00 0.00 69 1014.7
20240522205004 80 162 2.0 5.0 0.00 0.00 0.00 69 1014.5
20240522204507 80 171 2.0 5.0 0.00 0.00 0.00 69 1014.4
20240522204004 80 163 2.0 5.0 0.00 0.00 0.00 69 1014.2
20240522203504 80 184 2.0 6.0 0.00 0.00 0.00 68 1014.3
20240522203009 80 164 3.0 8.0 0.00 0.00 0.00 67 1014.1
20240522202504 81 156 5.0 8.0 0.00 0.00 0.00 66 1013.7
20240522202008 81 150 3.0 7.0 0.00 0.00 0.00 66 1013.9
20240522201521 81 182 2.0 5.0 0.00 0.00 0.00 67 1013.9
20240522201010 81 213 1.0 6.0 0.00 0.00 0.00 66 1014.0
20240522200504 81 177 3.0 6.0 0.00 0.00 0.00 64 1014.3
20240522200004 81 150 1.0 6.0 0.00 0.00 0.00 66 1014.4
20240522195507 81 145 2.0 12.0 0.00 0.00 0.00 65 1014.5
20240522195004 81 289 3.0 12.0 0.00 0.00 0.00 65 1014.4
20240522194505 81 181 5.0 10.0 0.00 0.00 0.00 65 1014.4
20240522194005 81 165 2.0 11.0 0.00 0.00 0.00 67 1014.1
20240522193505 81 176 4.0 11.0 0.00 0.00 0.00 66 1014.0
20240522193007 81 229 8.0 12.0 0.00 0.00 0.00 64 1013.6
20240522192504 81 162 5.0 12.0 0.00 0.00 0.00 63 1013.4
20240522192006 81 185 4.0 11.0 0.00 0.00 0.00 65 1014.0
20240522191510 82 147 6.0 10.0 0.00 0.00 0.00 63 1014.2
20240522191005 82 169 5.0 11.0 0.00 0.00 0.00 62 1014.1
20240522190511 82 41 4.0 11.0 0.00 0.00 0.00 62 1014.3
20240522190005 82 171 5.0 9.0 0.00 0.00 0.00 62 1014.2
20240522185505 82 163 4.0 13.0 0.00 0.00 0.00 63 1014.3
20240522185004 82 160 5.0 13.0 0.00 0.00 0.00 62 1014.2
20240522184506 83 173 4.0 10.0 0.00 0.00 0.00 61 1014.3
20240522184007 83 195 5.0 10.0 0.00 0.00 0.00 60 1014.4
20240522183504 84 152 4.0 11.0 0.00 0.00 0.00 58 1014.4
20240522183009 84 184 5.0 12.0 0.00 0.00 0.00 59 1014.6
20240522182505 84 161 5.0 12.0 0.00 0.00 0.00 59 1014.5
20240522182005 85 157 4.0 14.0 0.00 0.00 0.00 58 1014.5
20240522181510 83 157 6.0 14.0 0.00 0.00 0.00 60 1014.5
20240522181007 83 173 7.0 14.0 0.00 0.00 0.00 57 1014.4
20240522180507 84 184 8.0 13.0 0.00 0.00 0.00 59 1014.6
20240522180009 83 167 6.0 15.0 0.00 0.00 0.00 60 1014.8
20240522175509 83 165 7.0 15.0 0.00 0.00 0.00 59 1015.0